When you browse on this site, cookies collect data to enhance your experience and personalize the content and advertising you see.
Visit our Privacy Policy to learn more. By continuing to use the site, you agree to this use of cookies and data.
  • In Hungary
  • List of Countries
  • For 7 days
  • Water Temperature
  • Satellite Maps
  • Weather Map
  • News
  • Weather Widgets
  • user-avatar
    Login

    Hourly Weather Dhamar

    Today, 20 January, Sunday

    Time Temperature Precipitation Wind Pressure Humidity
    00:00 +15°C° 0 mm 1 mps 585 mmHg 79%
    01:00 +13°C° 0 mm 0 mps 584 mmHg 81%
    02:00 +13°C° 0 mm 0 mps 584 mmHg 82%
    03:00 +12°C° 0 mm 0 mps 584 mmHg 83%
    04:00 +12°C° 0 mm 0 mps 584 mmHg 84%
    05:00 +11°C° 0 mm 0 mps 584 mmHg 85%
    06:00 +11°C° 0 mm 0 mps 584 mmHg 87%
    07:00 +12°C° 0 mm 0 mps 584 mmHg 78%
    08:00 +14°C° 0 mm 0 mps 585 mmHg 69%
    09:00 +15°C° 0 mm 0 mps 586 mmHg 57%
    10:00 +19°C° 0 mm 1 mps 587 mmHg 50%
    11:00 +19°C° 0 mm 2 mps 587 mmHg 44%
    12:00 +21°C° 0 mm 2 mps 588 mmHg 38%
    13:00 +21°C° 0 mm 3 mps 587 mmHg 40%
    14:00 +21°C° 0 mm 3 mps 587 mmHg 43%
    15:00 +20°C° 0 mm 3 mps 587 mmHg 45%
    16:00 +19°C° 0 mm 3 mps 586 mmHg 53%
    17:00 +18°C° 0 mm 3 mps 586 mmHg 60%
    18:00 +17°C° 0 mm 2 mps 585 mmHg 67%
    19:00 +17°C° 0 mm 2 mps 585 mmHg 69%
    20:00 +16°C° 0 mm 1 mps 586 mmHg 72%
    21:00 +16°C° 0 mm 1 mps 586 mmHg 74%
    22:00 +16°C° 0 mm 1 mps 586 mmHg 73%
    23:00 +16°C° 0 mm 1 mps 585 mmHg 72%

    Tomorrow, 21 January, Monday

    Time Temperature Precipitation Wind Pressure Humidity
    00:00 +14°C° 0 mm 0 mps 585 mmHg 72%
    01:00 +14°C° 0 mm 0 mps 585 mmHg 73%
    02:00 +13°C° 0 mm 0 mps 585 mmHg 73%
    03:00 +13°C° 0 mm 0 mps 584 mmHg 74%
    04:00 +12°C° 0 mm 0 mps 584 mmHg 75%
    05:00 +12°C° 0 mm 0 mps 584 mmHg 76%
    06:00 +12°C° 0 mm 0 mps 584 mmHg 77%
    07:00 +13°C° 0 mm 0 mps 585 mmHg 72%
    08:00 +15°C° 0 mm 1 mps 586 mmHg 67%
    09:00 +16°C° 0 mm 1 mps 587 mmHg 62%
    10:00 +18°C° 0 mm 2 mps 587 mmHg 56%
    11:00 +19°C° 0 mm 2 mps 587 mmHg 50%
    12:00 +20°C° 0 mm 3 mps 587 mmHg 44%
    13:00 +20°C° 0 mm 3 mps 587 mmHg 46%
    14:00 +20°C° 0 mm 3 mps 586 mmHg 48%
    15:00 +20°C° 0 mm 4 mps 586 mmHg 50%
    16:00 +19°C° 0.1 mm 3 mps 586 mmHg 56%
    17:00 +18°C° 0.1 mm 3 mps 585 mmHg 61%
    18:00 +17°C° 0.1 mm 3 mps 585 mmHg 67%
    19:00 +17°C° 0 mm 2 mps 585 mmHg 70%
    20:00 +18°C° 0 mm 1 mps 585 mmHg 72%
    21:00 +16°C° 0 mm 1 mps 585 mmHg 74%
    22:00 +16°C° 0 mm 1 mps 585 mmHg 75%
    23:00 +15°C° 0 mm 0 mps 585 mmHg 76%

    Day after tomorrow, 22 January, Tuesday

    Time Temperature Precipitation Wind Pressure Humidity
    00:00 +14°C° 0 mm 0 mps 585 mmHg 77%
    01:00 +14°C° 0 mm 0 mps 584 mmHg 79%
    02:00 +13°C° 0 mm 0 mps 584 mmHg 81%
    03:00 +13°C° 0 mm 0 mps 583 mmHg 83%
    04:00 +12°C° 0 mm 0 mps 583 mmHg 84%
    05:00 +12°C° 0 mm 0 mps 583 mmHg 86%
    06:00 +11°C° 0 mm 0 mps 582 mmHg 88%
    07:00 +13°C° 0 mm 0 mps 584 mmHg 75%
    08:00 +15°C° 0 mm 0 mps 585 mmHg 63%
    09:00 +18°C° 0 mm 1 mps 586 mmHg 51%
    10:00 +20°C° 0 mm 1 mps 587 mmHg 44%
    11:00 +20°C° 0 mm 2 mps 587 mmHg 36%
    12:00 +22°C° 0 mm 3 mps 587 mmHg 28%
    13:00 +22°C° 0 mm 4 mps 587 mmHg 31%
    14:00 +22°C° 0 mm 4 mps 586 mmHg 33%
    15:00 +22°C° 0 mm 4 mps 586 mmHg 36%
    16:00 +21°C° 0 mm 4 mps 585 mmHg 44%
    17:00 +20°C° 0 mm 3 mps 585 mmHg 52%
    18:00 +18°C° 0 mm 3 mps 584 mmHg 60%
    19:00 +18°C° 0 mm 2 mps 584 mmHg 64%
    20:00 +17°C° 0 mm 2 mps 585 mmHg 67%
    21:00 +18°C° 0 mm 1 mps 585 mmHg 71%
    22:00 +16°C° 0 mm 1 mps 584 mmHg 72%
    23:00 +15°C° 0 mm 0 mps 584 mmHg 73%

    23 January, Wednesday

    Time Temperature Precipitation Wind Pressure Humidity
    00:00 +15°C° 0 mm 0 mps 584 mmHg 74%
    01:00 +14°C° 0 mm 0 mps 583 mmHg 77%
    02:00 +14°C° 0 mm 0 mps 583 mmHg 80%
    03:00 +13°C° 0 mm 0 mps 582 mmHg 83%
    04:00 +12°C° 0 mm 0 mps 582 mmHg 85%
    05:00 +12°C° 0 mm 0 mps 582 mmHg 87%
    06:00 +11°C° 0 mm 0 mps 582 mmHg 89%
    07:00 +13°C° 0 mm 0 mps 583 mmHg 79%
    08:00 +14°C° 0 mm 0 mps 584 mmHg 68%
    09:00 +18°C° 0 mm 1 mps 586 mmHg 57%
    10:00 +18°C° 0 mm 2 mps 586 mmHg 48%
    11:00 +20°C° 0 mm 2 mps 586 mmHg 40%
    12:00 +22°C° 0 mm 3 mps 587 mmHg 31%
    13:00 +22°C° 0 mm 3 mps 586 mmHg 32%
    14:00 +22°C° 0 mm 4 mps 586 mmHg 33%
    15:00 +22°C° 0 mm 4 mps 585 mmHg 34%
    16:00 +21°C° 0 mm 4 mps 585 mmHg 41%
    17:00 +20°C° 0 mm 4 mps 585 mmHg 48%
    18:00 +19°C° 0 mm 3 mps 585 mmHg 55%
    19:00 +18°C° 0 mm 3 mps 585 mmHg 61%
    20:00 +17°C° 0 mm 2 mps 585 mmHg 67%
    21:00 +18°C° 0 mm 1 mps 585 mmHg 73%
    22:00 +16°C° 0 mm 1 mps 585 mmHg 74%
    23:00 +16°C° 0 mm 1 mps 585 mmHg 76%

    24 January, Thursday

    Time Temperature Precipitation Wind Pressure Humidity
    00:00 +15°C° 0 mm 0 mps 584 mmHg 77%
    01:00 +14°C° 0 mm 0 mps 584 mmHg 78%
    02:00 +14°C° 0 mm 0 mps 583 mmHg 78%
    03:00 +13°C° 0 mm 0 mps 583 mmHg 79%
    04:00 +13°C° 0 mm 0 mps 583 mmHg 82%
    05:00 +12°C° 0 mm 0 mps 583 mmHg 84%
    06:00 +12°C° 0 mm 0 mps 583 mmHg 86%
    07:00 +14°C° 0 mm 0 mps 584 mmHg 75%
    08:00 +15°C° 0 mm 0 mps 585 mmHg 63%
    09:00 +17°C° 0 mm 0 mps 587 mmHg 51%
    10:00 +20°C° 0 mm 1 mps 587 mmHg 42%
    11:00 +21°C° 0 mm 2 mps 587 mmHg 33%
    12:00 +22°C° 0 mm 3 mps 587 mmHg 24%
    13:00 +24°C° 0 mm 3 mps 587 mmHg 25%
    14:00 +23°C° 0 mm 4 mps 587 mmHg 25%
    15:00 +23°C° 0 mm 4 mps 586 mmHg 26%
    16:00 +22°C° 0 mm 4 mps 586 mmHg 33%
    17:00 +21°C° 0 mm 3 mps 586 mmHg 40%
    18:00 +20°C° 0 mm 3 mps 586 mmHg 47%
    19:00 +19°C° 0 mm 2 mps 586 mmHg 52%
    20:00 +18°C° 0 mm 2 mps 586 mmHg 57%
    21:00 +19°C° 0 mm 1 mps 586 mmHg 62%
    22:00 +18°C° 0 mm 1 mps 586 mmHg 63%
    23:00 +18°C° 0 mm 1 mps 586 mmHg 64%

    25 January, Friday

    Time Temperature Precipitation Wind Pressure Humidity
    00:00 +16°C° 0 mm 0 mps 585 mmHg 65%
    01:00 +15°C° 0 mm 0 mps 585 mmHg 66%
    02:00 +15°C° 0 mm 0 mps 584 mmHg 68%
    03:00 +14°C° 0 mm 0 mps 584 mmHg 70%
    04:00 +14°C° 0 mm 0 mps 584 mmHg 71%
    05:00 +14°C° 0 mm 1 mps 584 mmHg 72%
    06:00 +14°C° 0 mm 1 mps 584 mmHg 73%
    07:00 +15°C° 0 mm 1 mps 585 mmHg 66%
    08:00 +18°C° 0 mm 1 mps 586 mmHg 58%
    09:00 +19°C° 0 mm 1 mps 587 mmHg 51%
    10:00 +21°C° 0 mm 1 mps 588 mmHg 46%
    11:00 +21°C° 0 mm 2 mps 588 mmHg 40%
    12:00 +23°C° 0 mm 2 mps 588 mmHg 35%
    13:00 +23°C° 0 mm 2 mps 587 mmHg 36%
    14:00 +22°C° 0 mm 3 mps 587 mmHg 37%
    15:00 +22°C° 0 mm 3 mps 586 mmHg 39%
    16:00 +21°C° 0.1 mm 3 mps 586 mmHg 44%
    17:00 +20°C° 0.1 mm 3 mps 586 mmHg 49%
    18:00 +19°C° 0.1 mm 2 mps 586 mmHg 54%
    19:00 +19°C° 0 mm 2 mps 586 mmHg 55%
    20:00 +18°C° 0 mm 2 mps 586 mmHg 57%
    21:00 +18°C° 0 mm 1 mps 586 mmHg 59%
    22:00 +18°C° 0 mm 1 mps 586 mmHg 60%
    23:00 +18°C° 0 mm 1 mps 586 mmHg 60%
    Show more